{"data":{"norad_id":46494,"intl_designator":"2020-068J","name":"NORBI","alt_names":[],"object_type":"PAYLOAD","status":"ACTIVE","operator":null,"country":"CIS","launch_date":"2020-09-28","launch_site_code":"PLMSC","launch_vehicle":null,"mission":null,"orbit_class":"UNKNOWN","rcs_meters":null,"size_class":null,"mass_kg":null,"dimensions":null,"purposes":[],"wikipedia_slug":null,"has_3d_model":false,"image_url":null,"decayed_at":null,"tle_current":{"epoch":"2026-09-20T05:25:21.191808Z","epoch_age_seconds":97410,"freshness":"FRESH","line1":"1 46494U 20068J   26263.22593972  .00018454  00000+0  30466-3 0  9994","line2":"2 46494  97.8595 287.8433 0003474 258.6369 101.4492 15.52322968330936","mean_motion":15.52322968,"eccentricity":0.0003474,"inclination_deg":97.8595,"raan_deg":287.8433,"arg_perigee_deg":258.6369,"mean_anomaly_deg":101.4492,"bstar":0.00030466,"rev_number":33093,"period_min":92.764201115653,"perigee_km":407.58743227179,"apogee_km":412.30379207073,"semimajor_km":6788.0826121713,"source":"CELESTRAK","updated_at":"2026-09-20T09:00:14.760679Z"}}}